McNabs Island, Nova Scotia

Past 24 Hour Conditions

This table is a summary of hourly weather conditions for the past 24 hours. This summary includes the following parameters: temperature, humidity, dew point, wind speed and direction, air pressure, visibility and/or wind chill and humidex.
Date / Time
(ADT)
Conditions Temp (°C) Humidity (%) Dew Point (°C) Wind (km/h) Pressure (kPa) Visibility (km)
25 April 2014
1:00 N/A 2 87 0 N 26 gust 40 100.0 N/A
00:00 N/A 2 89 0 N 20 gust 34 100.0 N/A
24 April 2014
23:00 N/A 2 91 0 NNW 18 gust 33 99.9 N/A
22:00 N/A 2 92 0 N 22 gust 36 99.9 N/A
21:00 N/A 2 91 0 N 21 gust 36 99.8 N/A
20:00 N/A 2 92 0 N 12 gust 30 99.7 N/A
19:00 N/A 1   93 0 N 20 gust 30 99.6 N/A
18:00 N/A 2 93 1 NNW 16 99.5 N/A
17:00 N/A 2 93 1 N 10 99.4 N/A
16:00 N/A 2 93 1 NNE 9 99.4 N/A
15:00 N/A 3 92 2 NE 11 99.3 N/A
14:00 N/A 3 92 2 ENE 13 99.3 N/A
13:00 N/A 3 92 2 ENE 17 gust 36 99.2 N/A
12:00 N/A 3 93 2 ENE 18 gust 32 99.2 N/A
11:00 N/A 3 93 2 ENE 26 gust 49 99.2 N/A
10:00 N/A 3 92 2 ENE 33 gust 43 99.1 N/A
9:00 N/A 3 92 2 ENE 35 gust 52 99.0 N/A
8:00 N/A 3 91 2 ENE 30 gust 47 99.1 N/A
7:00 N/A 4   91 2 ENE 35 gust 47 99.1 N/A
6:00 N/A 4   91 2 ENE 32 gust 49 99.1 N/A
5:00 N/A 4   92 2 ENE 28 gust 41 99.1 N/A
4:00 N/A 3 92 2 ENE 29 gust 45 99.3 N/A
3:00 N/A 3 92 2 E 24 gust 46 99.4 N/A
2:00 N/A 3 93 2 ENE 33 gust 48 99.4 N/A
1:00 N/A 3 93 2 ENE 30 gust 53 99.5 N/A
N/A
Not available
 ↑ 
Highest temperature
 ↓ 
Lowest temperature

If you require additional historical weather information, please visit Climate Data Online.